| time (UTC) | temp F | wind direction | speed MPH | gust MPH | rain 1hr in | rain 24hr in | rain mn in | humidity % | barometer mb |
| 20260906124643 | 72 | 96 | 1.0 | 5.0 | 0.00 | 0.00 | 0.00 | 93 | 1014.0 |
| 20260906124148 | 72 | 18 | 2.0 | 6.0 | 0.00 | 0.00 | 0.00 | 93 | 1014.0 |
| 20260906123702 | 72 | 334 | 0.0 | 6.0 | 0.00 | 0.00 | 0.00 | 93 | 1013.4 |
| 20260906123212 | 72 | 79 | 2.0 | 4.0 | 0.00 | 0.00 | 0.00 | 93 | 1013.4 |
| 20260906122655 | 72 | 331 | 0.0 | 6.0 | 0.00 | 0.00 | 0.00 | 93 | 1013.4 |
| 20260906122141 | 72 | 338 | 1.0 | 6.0 | 0.00 | 0.00 | 0.00 | 94 | 1013.4 |
| 20260906121636 | 72 | 115 | 1.0 | 4.0 | 0.00 | 0.00 | 0.00 | 94 | 1013.4 |
| 20260906121144 | 72 | 78 | 2.0 | 4.0 | 0.00 | 0.00 | 0.00 | 94 | 1013.4 |
| 20260906120651 | 72 | 249 | 0.0 | 2.0 | 0.00 | 0.00 | 0.00 | 94 | 1013.2 |
| 20260906120136 | 71 | 249 | 1.0 | 2.0 | 0.00 | 0.00 | 0.00 | 94 | 1013.2 |
| 20260906115644 | 71 | 249 | 1.0 | 6.0 | 0.00 | 0.00 | 0.00 | 94 | 1013.2 |
| 20260906115215 | 71 | 17 | 1.0 | 6.0 | 0.00 | 0.00 | 0.00 | 94 | 1013.1 |
| 20260906114704 | 71 | 48 | 1.0 | 6.0 | 0.00 | 0.00 | 0.00 | 93 | 1013.1 |
| 20260906114151 | 71 | 338 | 0.0 | 3.0 | 0.00 | 0.00 | 0.00 | 93 | 1013.1 |
| 20260906113651 | 71 | 338 | 2.0 | 7.0 | 0.00 | 0.00 | 0.00 | 93 | 1012.2 |
| 20260906113155 | 71 | 355 | 1.0 | 7.0 | 0.00 | 0.00 | 0.00 | 93 | 1012.2 |
| 20260906112643 | 72 | 31 | 2.0 | 6.0 | 0.00 | 0.00 | 0.00 | 93 | 1012.2 |
| 20260906112147 | 72 | 338 | 2.0 | 4.0 | 0.00 | 0.00 | 0.00 | 93 | 1012.4 |
| 20260906111652 | 72 | 360 | 0.0 | 4.0 | 0.00 | 0.00 | 0.00 | 93 | 1012.4 |
| 20260906111137 | 72 | 9 | 1.0 | 4.0 | 0.00 | 0.00 | 0.00 | 93 | 1012.4 |
| 20260906110644 | 72 | 9 | 1.0 | 4.0 | 0.00 | 0.00 | 0.00 | 93 | 1012.5 |
| 20260906110151 | 72 | 23 | 2.0 | 5.0 | 0.00 | 0.00 | 0.00 | 93 | 1012.5 |
| 20260906105716 | 72 | 355 | 0.0 | 5.0 | 0.00 | 0.00 | 0.00 | 93 | 1012.5 |
| 20260906105145 | 72 | 28 | 1.0 | 4.0 | 0.00 | 0.00 | 0.00 | 93 | 1012.1 |
| 20260906104649 | 72 | 351 | 2.0 | 3.0 | 0.00 | 0.00 | 0.00 | 93 | 1012.1 |
| 20260906104138 | 72 | 360 | 1.0 | 3.0 | 0.00 | 0.00 | 0.00 | 93 | 1012.1 |
| 20260906103645 | 72 | 345 | 1.0 | 3.0 | 0.00 | 0.00 | 0.00 | 93 | 1012.0 |
| 20260906103216 | 72 | 341 | 1.0 | 4.0 | 0.00 | 0.00 | 0.00 | 93 | 1012.0 |
| 20260906102646 | 72 | 355 | 0.0 | 4.0 | 0.00 | 0.00 | 0.00 | 93 | 1012.0 |
| 20260906102146 | 72 | 328 | 1.0 | 3.0 | 0.00 | 0.00 | 0.00 | 93 | 1012.1 |
| 20260906101636 | 72 | 113 | 2.0 | 4.0 | 0.00 | 0.00 | 0.00 | 93 | 1012.1 |
| 20260906101146 | 72 | 297 | 1.0 | 4.0 | 0.00 | 0.00 | 0.00 | 93 | 1012.1 |
| 20260906100638 | 71 | 346 | 0.0 | 5.0 | 0.00 | 0.00 | 0.00 | 93 | 1011.9 |
| 20260906100207 | 71 | 11 | 2.0 | 5.0 | 0.00 | 0.00 | 0.00 | 93 | 1011.9 |
| 20260906095639 | 71 | 10 | 1.0 | 5.0 | 0.00 | 0.00 | 0.00 | 93 | 1011.9 |
| 20260906095143 | 71 | 351 | 2.0 | 4.0 | 0.00 | 0.00 | 0.00 | 93 | 1012.0 |
| 20260906094644 | 71 | 351 | 2.0 | 4.0 | 0.00 | 0.00 | 0.00 | 93 | 1012.0 |
| 20260906094212 | 71 | 355 | 1.0 | 4.0 | 0.00 | 0.00 | 0.00 | 93 | 1012.0 |
| 20260906093633 | 71 | 342 | 2.0 | 4.0 | 0.00 | 0.00 | 0.00 | 93 | 1011.8 |
| 20260906093144 | 71 | 14 | 2.0 | 6.0 | 0.00 | 0.00 | 0.00 | 93 | 1011.8 |
| 20260906092648 | 71 | 30 | 2.0 | 6.0 | 0.00 | 0.00 | 0.00 | 93 | 1011.8 |
| 20260906092137 | 71 | 350 | 2.0 | 3.0 | 0.00 | 0.00 | 0.00 | 93 | 1011.7 |
| 20260906091645 | 71 | 360 | 1.0 | 5.0 | 0.00 | 0.00 | 0.00 | 93 | 1011.7 |
| 20260906091136 | 71 | 5 | 3.0 | 5.0 | 0.00 | 0.00 | 0.00 | 93 | 1011.7 |
| 20260906090641 | 71 | 325 | 1.0 | 4.0 | 0.00 | 0.00 | 0.00 | 93 | 1011.8 |
| 20260906090149 | 71 | 19 | 2.0 | 4.0 | 0.00 | 0.00 | 0.00 | 93 | 1011.8 |
| 20260906085634 | 71 | 355 | 0.0 | 3.0 | 0.00 | 0.00 | 0.00 | 93 | 1011.8 |
| 20260906085144 | 71 | 355 | 1.0 | 3.0 | 0.00 | 0.00 | 0.00 | 93 | 1012.1 |
| 20260906084655 | 71 | 355 | 1.0 | 6.0 | 0.00 | 0.00 | 0.00 | 93 | 1012.1 |
| 20260906084141 | 71 | 355 | 1.0 | 6.0 | 0.00 | 0.00 | 0.00 | 93 | 1012.1 |
| 20260906083649 | 71 | 5 | 2.0 | 4.0 | 0.00 | 0.00 | 0.00 | 93 | 1012.2 |
| 20260906083151 | 71 | 5 | 2.0 | 7.0 | 0.00 | 0.00 | 0.00 | 93 | 1012.2 |
| 20260906082703 | 71 | 43 | 1.0 | 7.0 | 0.00 | 0.00 | 0.00 | 93 | 1012.2 |
| 20260906082209 | 71 | 5 | 2.0 | 7.0 | 0.00 | 0.00 | 0.00 | 93 | 1012.1 |
| 20260906081640 | 71 | 355 | 2.0 | 5.0 | 0.00 | 0.00 | 0.00 | 93 | 1012.1 |
| 20260906081150 | 71 | 65 | 1.0 | 5.0 | 0.00 | 0.00 | 0.00 | 93 | 1012.1 |
| 20260906080655 | 71 | 5 | 3.0 | 5.0 | 0.00 | 0.00 | 0.00 | 93 | 1012.1 |
| 20260906080142 | 71 | 24 | 1.0 | 6.0 | 0.00 | 0.00 | 0.00 | 93 | 1012.1 |
| 20260906075644 | 71 | 11 | 1.0 | 6.0 | 0.00 | 0.00 | 0.00 | 93 | 1012.1 |
| 20260906075134 | 71 | 360 | 2.0 | 4.0 | 0.00 | 0.00 | 0.00 | 93 | 1012.1 |
| 20260906074644 | 71 | 345 | 1.0 | 5.0 | 0.00 | 0.00 | 0.00 | 93 | 1012.1 |
| 20260906074151 | 71 | 345 | 1.0 | 5.0 | 0.00 | 0.00 | 0.00 | 93 | 1012.1 |
| 20260906073705 | 71 | 355 | 1.0 | 5.0 | 0.00 | 0.00 | 0.00 | 93 | 1012.1 |
| 20260906073149 | 71 | 355 | 3.0 | 5.0 | 0.00 | 0.00 | 0.00 | 93 | 1012.1 |
| 20260906072638 | 71 | 348 | 0.0 | 6.0 | 0.00 | 0.00 | 0.00 | 93 | 1012.1 |
| 20260906072143 | 71 | 14 | 0.0 | 6.0 | 0.00 | 0.00 | 0.00 | 92 | 1012.2 |
| 20260906071632 | 71 | 355 | 2.0 | 4.0 | 0.00 | 0.00 | 0.00 | 92 | 1012.2 |
| 20260906071141 | 71 | 355 | 1.0 | 6.0 | 0.00 | 0.00 | 0.00 | 92 | 1012.2 |
| 20260906070651 | 71 | 82 | 1.0 | 6.0 | 0.00 | 0.00 | 0.00 | 92 | 1012.4 |
| 20260906070137 | 71 | 323 | 0.0 | 5.0 | 0.00 | 0.00 | 0.00 | 92 | 1012.4 |
| 20260906065645 | 71 | 81 | 1.0 | 5.0 | 0.00 | 0.00 | 0.00 | 92 | 1012.4 |
| 20260906065212 | 71 | 347 | 0.0 | 4.0 | 0.00 | 0.00 | 0.00 | 92 | 1012.4 |
| 20260906064715 | 71 | 347 | 1.0 | 4.0 | 0.00 | 0.00 | 0.00 | 92 | 1012.4 |
| 20260906064141 | 71 | 328 | 2.0 | 4.0 | 0.00 | 0.00 | 0.00 | 92 | 1012.4 |
| 20260906063646 | 71 | 11 | 1.0 | 5.0 | 0.00 | 0.00 | 0.00 | 92 | 1012.3 |
| 20260906063150 | 71 | 355 | 2.0 | 5.0 | 0.00 | 0.00 | 0.00 | 92 | 1012.3 |
| 20260906062644 | 71 | 15 | 0.0 | 4.0 | 0.00 | 0.00 | 0.00 | 92 | 1012.3 |
| 20260906062150 | 71 | 342 | 1.0 | 7.0 | 0.00 | 0.00 | 0.00 | 92 | 1012.3 |
| 20260906061635 | 71 | 25 | 2.0 | 7.0 | 0.00 | 0.00 | 0.00 | 91 | 1012.3 |
| 20260906061203 | 71 | 355 | 1.0 | 10.0 | 0.00 | 0.00 | 0.00 | 92 | 1012.3 |
| 20260906060709 | 71 | 23 | 2.0 | 10.0 | 0.00 | 0.00 | 0.00 | 92 | 1012.4 |
| 20260906060140 | 71 | 78 | 4.0 | 7.0 | 0.00 | 0.00 | 0.00 | 92 | 1012.4 |
| 20260906055648 | 71 | 26 | 2.0 | 6.0 | 0.00 | 0.00 | 0.00 | 92 | 1012.4 |
| 20260906055155 | 71 | 128 | 1.0 | 9.0 | 0.00 | 0.00 | 0.00 | 92 | 1012.5 |
| 20260906054640 | 72 | 15 | 2.0 | 9.0 | 0.00 | 0.00 | 0.00 | 92 | 1012.5 |
| 20260906054148 | 72 | 331 | 1.0 | 5.0 | 0.00 | 0.00 | 0.00 | 92 | 1012.5 |
| 20260906053636 | 72 | 323 | 1.0 | 5.0 | 0.00 | 0.00 | 0.00 | 92 | 1012.3 |
| 20260906053137 | 72 | 348 | 2.0 | 5.0 | 0.00 | 0.00 | 0.00 | 92 | 1012.3 |
| 20260906052652 | 72 | 339 | 1.0 | 4.0 | 0.00 | 0.00 | 0.00 | 92 | 1012.3 |
| 20260906052139 | 72 | 54 | 2.0 | 5.0 | 0.00 | 0.00 | 0.00 | 92 | 1012.1 |
| 20260906051644 | 72 | 130 | 3.0 | 6.0 | 0.00 | 0.00 | 0.00 | 92 | 1012.1 |
| 20260906051149 | 72 | 315 | 2.0 | 6.0 | 0.00 | 0.00 | 0.00 | 92 | 1012.1 |
| 20260906050650 | 73 | 344 | 2.0 | 5.0 | 0.00 | 0.00 | 0.00 | 92 | 1011.9 |
| 20260906050136 | 73 | 348 | 2.0 | 4.0 | 0.00 | 0.00 | 0.00 | 91 | 1011.9 |
| 20260906045641 | 73 | 335 | 3.0 | 6.0 | 0.00 | 0.00 | 0.00 | 91 | 1011.9 |
| 20260906045152 | 73 | 360 | 2.0 | 5.0 | 0.00 | 0.00 | 0.00 | 91 | 1011.6 |
| 20260906044640 | 73 | 41 | 2.0 | 5.0 | 0.00 | 0.00 | 0.00 | 91 | 1011.6 |
| 20260906044207 | 73 | 42 | 0.0 | 4.0 | 0.00 | 0.00 | 0.00 | 91 | 1011.6 |
| 20260906043649 | 74 | 360 | 2.0 | 4.0 | 0.00 | 0.00 | 0.00 | 90 | 1011.5 |
| 20260906043143 | 74 | 336 | 1.0 | 6.0 | 0.00 | 0.00 | 0.00 | 90 | 1011.5 |
| 20260906042650 | 74 | 9 | 0.0 | 6.0 | 0.00 | 0.00 | 0.00 | 90 | 1011.5 |
| 20260906042140 | 74 | 277 | 2.0 | 5.0 | 0.00 | 0.00 | 0.00 | 90 | 1011.2 |
| 20260906041647 | 74 | 94 | 2.0 | 6.0 | 0.00 | 0.00 | 0.00 | 90 | 1011.2 |
| 20260906041136 | 74 | 100 | 2.0 | 6.0 | 0.00 | 0.00 | 0.00 | 89 | 1011.2 |
| 20260906040644 | 74 | 96 | 3.0 | 6.0 | 0.00 | 0.00 | 0.00 | 89 | 1011.0 |
| 20260906040135 | 75 | 29 | 2.0 | 6.0 | 0.00 | 0.00 | 0.00 | 89 | 1011.1 |
| 20260906035644 | 75 | 46 | 1.0 | 7.0 | 0.00 | 0.00 | 0.00 | 89 | 1011.1 |
| 20260906035152 | 75 | 15 | 2.0 | 7.0 | 0.00 | 0.00 | 0.00 | 89 | 1011.1 |
| 20260906034640 | 75 | 170 | 1.0 | 4.0 | 0.00 | 0.00 | 0.00 | 89 | 1011.1 |
| 20260906034151 | 75 | 327 | 1.0 | 5.0 | 0.00 | 0.00 | 0.00 | 89 | 1011.1 |
| 20260906033659 | 75 | 151 | 2.0 | 5.0 | 0.00 | 0.00 | 0.00 | 89 | 1010.9 |
| 20260906033145 | 75 | 138 | 1.0 | 4.0 | 0.00 | 0.00 | 0.00 | 89 | 1010.9 |
| 20260906032653 | 75 | 346 | 2.0 | 4.0 | 0.00 | 0.00 | 0.00 | 89 | 1010.9 |
| 20260906032207 | 75 | 340 | 0.0 | 3.0 | 0.00 | 0.00 | 0.00 | 89 | 1010.8 |
| 20260906031653 | 76 | 319 | 1.0 | 3.0 | 0.00 | 0.00 | 0.00 | 89 | 1010.9 |
| 20260906031138 | 76 | 5 | 1.0 | 2.0 | 0.00 | 0.00 | 0.00 | 89 | 1010.9 |
| 20260906030646 | 76 | 5 | 0.0 | 2.0 | 0.00 | 0.00 | 0.00 | 88 | 1010.7 |
| 20260906030154 | 76 | 5 | 1.0 | 4.0 | 0.00 | 0.00 | 0.00 | 88 | 1010.7 |
| 20260906025644 | 76 | 5 | 2.0 | 4.0 | 0.00 | 0.00 | 0.00 | 88 | 1010.7 |
| 20260906025149 | 76 | 355 | 1.0 | 4.0 | 0.00 | 0.00 | 0.00 | 88 | 1010.8 |
| 20260906024640 | 77 | 355 | 1.0 | 4.0 | 0.00 | 0.00 | 0.00 | 87 | 1010.8 |
| 20260906024147 | 77 | 355 | 1.0 | 3.0 | 0.00 | 0.00 | 0.00 | 87 | 1010.8 |
| 20260906023710 | 77 | 355 | 0.0 | 4.0 | 0.00 | 0.00 | 0.00 | 87 | 1010.7 |
| 20260906023140 | 77 | 63 | 1.0 | 4.0 | 0.00 | 0.00 | 0.00 | 86 | 1010.7 |
| 20260906022645 | 77 | 360 | 1.0 | 4.0 | 0.00 | 0.00 | 0.00 | 86 | 1010.7 |
| 20260906022135 | 77 | 139 | 1.0 | 4.0 | 0.00 | 0.00 | 0.00 | 86 | 1010.4 |
| 20260906021643 | 78 | 350 | 1.0 | 6.0 | 0.00 | 0.00 | 0.00 | 86 | 1010.5 |
| 20260906021151 | 78 | 350 | 1.0 | 6.0 | 0.00 | 0.00 | 0.00 | 86 | 1010.5 |
| 20260906020704 | 78 | 16 | 2.0 | 6.0 | 0.00 | 0.00 | 0.00 | 86 | 1010.5 |
| 20260906020206 | 78 | 18 | 3.0 | 6.0 | 0.00 | 0.00 | 0.00 | 85 | 1010.5 |
| 20260906015639 | 78 | 308 | 1.0 | 7.0 | 0.00 | 0.00 | 0.00 | 85 | 1010.5 |
| 20260906015137 | 79 | 42 | 2.0 | 7.0 | 0.00 | 0.00 | 0.00 | 85 | 1010.3 |
| 20260906014648 | 79 | 285 | 1.0 | 6.0 | 0.00 | 0.00 | 0.00 | 85 | 1010.3 |
| 20260906014204 | 79 | 255 | 1.0 | 5.0 | 0.00 | 0.00 | 0.00 | 84 | 1010.3 |
| 20260906013635 | 79 | 335 | 2.0 | 5.0 | 0.00 | 0.00 | 0.00 | 84 | 1010.3 |
| 20260906013149 | 79 | 205 | 1.0 | 12.0 | 0.00 | 0.00 | 0.00 | 84 | 1010.3 |
| 20260906012702 | 80 | 11 | 2.0 | 12.0 | 0.00 | 0.00 | 0.00 | 83 | 1010.3 |
| 20260906012146 | 80 | 350 | 1.0 | 10.0 | 0.00 | 0.00 | 0.00 | 83 | 1009.9 |
| 20260906011700 | 80 | 313 | 1.0 | 10.0 | 0.00 | 0.00 | 0.00 | 83 | 1009.9 |
| 20260906011143 | 81 | 9 | 2.0 | 11.0 | 0.00 | 0.00 | 0.00 | 83 | 1010.0 |
| 20260906010634 | 81 | 22 | 4.0 | 11.0 | 0.00 | 0.00 | 0.00 | 82 | 1009.8 |
| 20260906010211 | 81 | 360 | 3.0 | 11.0 | 0.00 | 0.00 | 0.00 | 82 | 1009.8 |
| 20260906005639 | 82 | 360 | 2.0 | 5.0 | 0.00 | 0.00 | 0.00 | 82 | 1009.8 |
| 20260906005152 | 82 | 254 | 1.0 | 11.0 | 0.00 | 0.00 | 0.00 | 81 | 1009.4 |
| 20260906004647 | 82 | 317 | 4.0 | 11.0 | 0.00 | 0.00 | 0.00 | 81 | 1009.4 |
| 20260906004151 | 82 | 327 | 2.0 | 11.0 | 0.00 | 0.00 | 0.00 | 80 | 1009.4 |
| 20260906003641 | 83 | 17 | 4.0 | 7.0 | 0.00 | 0.00 | 0.00 | 80 | 1009.5 |
| 20260906003148 | 83 | 67 | 2.0 | 5.0 | 0.00 | 0.00 | 0.00 | 80 | 1009.5 |
| 20260906002634 | 83 | 342 | 2.0 | 8.0 | 0.00 | 0.00 | 0.00 | 80 | 1009.5 |
| 20260906002144 | 83 | 5 | 3.0 | 9.0 | 0.00 | 0.00 | 0.00 | 80 | 1009.3 |
| 20260906001651 | 84 | 19 | 3.0 | 9.0 | 0.00 | 0.00 | 0.00 | 80 | 1009.4 |
| 20260906001142 | 84 | 350 | 1.0 | 7.0 | 0.00 | 0.00 | 0.00 | 79 | 1009.4 |
| 20260906000653 | 84 | 14 | 2.0 | 10.0 | 0.00 | 0.00 | 0.00 | 79 | 1009.4 |
| 20260906000153 | 85 | 48 | 4.0 | 10.0 | 0.00 | 0.00 | 0.00 | 78 | 1009.4 |
| 20260905235639 | 85 | 66 | 3.0 | 10.0 | 0.00 | 0.00 | 0.00 | 78 | 1009.4 |
| 20260905235147 | 86 | 27 | 2.0 | 7.0 | 0.00 | 0.00 | 0.00 | 78 | 1009.3 |
| 20260905234655 | 86 | 44 | 3.0 | 7.0 | 0.00 | 0.00 | 0.00 | 78 | 1009.3 |
| 20260905234140 | 87 | 19 | 4.0 | 7.0 | 0.00 | 0.00 | 0.00 | 77 | 1009.3 |
| 20260905233648 | 87 | 325 | 2.0 | 5.0 | 0.00 | 0.00 | 0.00 | 77 | 1008.9 |
| 20260905233204 | 88 | 341 | 3.0 | 9.0 | 0.00 | 0.00 | 0.00 | 76 | 1008.9 |
| 20260905232647 | 88 | 43 | 4.0 | 9.0 | 0.00 | 0.00 | 0.00 | 75 | 1008.9 |
| 20260905232155 | 89 | 346 | 4.0 | 8.0 | 0.00 | 0.00 | 0.00 | 75 | 1008.8 |
| 20260905231640 | 89 | 5 | 2.0 | 8.0 | 0.00 | 0.00 | 0.00 | 74 | 1008.8 |
| 20260905231148 | 90 | 316 | 4.0 | 6.0 | 0.00 | 0.00 | 0.00 | 73 | 1008.8 |
| 20260905230652 | 90 | 5 | 2.0 | 6.0 | 0.00 | 0.00 | 0.00 | 72 | 1008.9 |
| 20260905230141 | 90 | 52 | 2.0 | 8.0 | 0.00 | 0.00 | 0.00 | 71 | 1008.9 |
| 20260905225717 | 90 | 332 | 3.0 | 8.0 | 0.00 | 0.00 | 0.00 | 71 | 1008.9 |
| 20260905225143 | 90 | 355 | 2.0 | 5.0 | 0.00 | 0.00 | 0.00 | 72 | 1008.8 |
| 20260905224647 | 91 | 340 | 1.0 | 6.0 | 0.00 | 0.00 | 0.00 | 71 | 1008.8 |
| 20260905224203 | 91 | 10 | 3.0 | 6.0 | 0.00 | 0.00 | 0.00 | 71 | 1008.8 |
| 20260905223636 | 91 | 49 | 4.0 | 8.0 | 0.00 | 0.00 | 0.00 | 70 | 1008.7 |
| 20260905223147 | 91 | 45 | 4.0 | 8.0 | 0.00 | 0.00 | 0.00 | 70 | 1008.7 |
| 20260905222636 | 92 | 355 | 1.0 | 9.0 | 0.00 | 0.00 | 0.00 | 70 | 1008.7 |
| 20260905222144 | 92 | 355 | 0.0 | 9.0 | 0.00 | 0.00 | 0.00 | 70 | 1008.8 |
| 20260905221649 | 92 | 355 | 2.0 | 5.0 | 0.00 | 0.00 | 0.00 | 69 | 1008.8 |
| 20260905221137 | 93 | 19 | 2.0 | 4.0 | 0.00 | 0.00 | 0.00 | 69 | 1008.8 |
| 20260905220703 | 93 | 338 | 2.0 | 5.0 | 0.00 | 0.00 | 0.00 | 68 | 1008.8 |
| 20260905220146 | 93 | 5 | 1.0 | 5.0 | 0.00 | 0.00 | 0.00 | 69 | 1008.8 |
| 20260905215641 | 93 | 10 | 1.0 | 6.0 | 0.00 | 0.00 | 0.00 | 69 | 1008.8 |
| 20260905215148 | 93 | 5 | 2.0 | 6.0 | 0.00 | 0.00 | 0.00 | 69 | 1008.8 |
| 20260905214636 | 93 | 28 | 1.0 | 5.0 | 0.00 | 0.00 | 0.00 | 68 | 1008.8 |
| 20260905214141 | 93 | 360 | 0.0 | 5.0 | 0.00 | 0.00 | 0.00 | 69 | 1008.8 |
| 20260905213654 | 93 | 26 | 0.0 | 4.0 | 0.00 | 0.00 | 0.00 | 70 | 1008.7 |
| 20260905213141 | 93 | 355 | 1.0 | 5.0 | 0.00 | 0.00 | 0.00 | 70 | 1008.7 |
| 20260905212646 | 93 | 36 | 2.0 | 9.0 | 0.00 | 0.00 | 0.00 | 68 | 1008.7 |
| 20260905212149 | 93 | 340 | 4.0 | 9.0 | 0.00 | 0.00 | 0.00 | 68 | 1008.7 |
| 20260905211642 | 93 | 46 | 2.0 | 4.0 | 0.00 | 0.00 | 0.00 | 70 | 1008.7 |
| 20260905211152 | 93 | 12 | 1.0 | 5.0 | 0.00 | 0.00 | 0.00 | 71 | 1008.7 |
| 20260905210642 | 93 | 17 | 1.0 | 7.0 | 0.00 | 0.00 | 0.00 | 71 | 1008.8 |
| 20260905210216 | 93 | 360 | 3.0 | 7.0 | 0.00 | 0.00 | 0.00 | 71 | 1008.8 |
| 20260905205652 | 92 | 38 | 1.0 | 5.0 | 0.00 | 0.00 | 0.00 | 71 | 1008.8 |
| 20260905205153 | 92 | 350 | 1.0 | 3.0 | 0.00 | 0.00 | 0.00 | 74 | 1009.0 |
| 20260905204638 | 91 | 32 | 0.0 | 2.0 | 0.00 | 0.00 | 0.00 | 73 | 1009.0 |
| 20260905204149 | 90 | 345 | 0.0 | 3.0 | 0.00 | 0.00 | 0.00 | 75 | 1009.0 |
| 20260905203700 | 90 | 345 | 0.0 | 4.0 | 0.00 | 0.00 | 0.00 | 73 | 1009.1 |
| 20260905203146 | 91 | 360 | 2.0 | 5.0 | 0.00 | 0.00 | 0.00 | 72 | 1009.2 |
| 20260905202700 | 92 | 348 | 1.0 | 5.0 | 0.00 | 0.00 | 0.00 | 71 | 1009.2 |
| 20260905202208 | 92 | 5 | 1.0 | 4.0 | 0.00 | 0.00 | 0.00 | 71 | 1009.1 |
| 20260905201635 | 92 | 300 | 2.0 | 4.0 | 0.00 | 0.00 | 0.00 | 70 | 1009.1 |
| 20260905201145 | 93 | 5 | 0.0 | 6.0 | 0.00 | 0.00 | 0.00 | 69 | 1009.2 |
| 20260905200715 | 93 | 13 | 3.0 | 6.0 | 0.00 | 0.00 | 0.00 | 68 | 1009.2 |
| 20260905200142 | 93 | 29 | 1.0 | 11.0 | 0.00 | 0.00 | 0.00 | 69 | 1009.2 |
| 20260905195716 | 93 | 342 | 2.0 | 11.0 | 0.00 | 0.00 | 0.00 | 69 | 1009.2 |
| 20260905195140 | 93 | 5 | 1.0 | 6.0 | 0.00 | 0.00 | 0.00 | 70 | 1009.2 |
| 20260905194643 | 93 | 341 | 2.0 | 9.0 | 0.00 | 0.00 | 0.00 | 68 | 1009.2 |
| 20260905194146 | 93 | 51 | 2.0 | 9.0 | 0.00 | 0.00 | 0.00 | 68 | 1009.2 |
| 20260905193653 | 93 | 30 | 2.0 | 6.0 | 0.00 | 0.00 | 0.00 | 68 | 1009.2 |
| 20260905193143 | 93 | 355 | 2.0 | 6.0 | 0.00 | 0.00 | 0.00 | 68 | 1009.2 |
| 20260905192652 | 93 | 355 | 1.0 | 7.0 | 0.00 | 0.00 | 0.00 | 69 | 1009.2 |
| 20260905192141 | 93 | 30 | 4.0 | 7.0 | 0.00 | 0.00 | 0.00 | 69 | 1009.4 |
| 20260905191635 | 92 | 343 | 2.0 | 6.0 | 0.00 | 0.00 | 0.00 | 72 | 1009.3 |
| 20260905191144 | 91 | 5 | 2.0 | 6.0 | 0.00 | 0.00 | 0.00 | 72 | 1009.3 |
| 20260905190647 | 91 | 355 | 2.0 | 6.0 | 0.00 | 0.00 | 0.00 | 70 | 1009.3 |
| 20260905190142 | 92 | 11 | 3.0 | 6.0 | 0.00 | 0.00 | 0.00 | 69 | 1009.3 |
| 20260905185710 | 93 | 336 | 1.0 | 5.0 | 0.00 | 0.00 | 0.00 | 68 | 1009.4 |
| 20260905185203 | 94 | 9 | 1.0 | 6.0 | 0.00 | 0.00 | 0.00 | 68 | 1009.5 |
| 20260905184652 | 94 | 19 | 1.0 | 6.0 | 0.00 | 0.00 | 0.00 | 68 | 1009.5 |
| 20260905184146 | 94 | 340 | 4.0 | 6.0 | 0.00 | 0.00 | 0.00 | 68 | 1009.5 |
| 20260905183640 | 94 | 19 | 2.0 | 7.0 | 0.00 | 0.00 | 0.00 | 67 | 1009.7 |
| 20260905183148 | 94 | 265 | 1.0 | 7.0 | 0.00 | 0.00 | 0.00 | 69 | 1009.7 |
| 20260905182649 | 94 | 32 | 2.0 | 6.0 | 0.00 | 0.00 | 0.00 | 69 | 1009.7 |
| 20260905182142 | 94 | 123 | 3.0 | 6.0 | 0.00 | 0.00 | 0.00 | 68 | 1009.8 |
| 20260905181715 | 93 | 32 | 1.0 | 5.0 | 0.00 | 0.00 | 0.00 | 70 | 1009.8 |
| 20260905181144 | 93 | 39 | 2.0 | 6.0 | 0.00 | 0.00 | 0.00 | 69 | 1009.8 |
| 20260905180715 | 93 | 360 | 3.0 | 7.0 | 0.00 | 0.00 | 0.00 | 69 | 1009.9 |
| 20260905180144 | 93 | 331 | 3.0 | 7.0 | 0.00 | 0.00 | 0.00 | 68 | 1009.9 |
| 20260905175636 | 93 | 331 | 4.0 | 7.0 | 0.00 | 0.00 | 0.00 | 67 | 1009.9 |
| 20260905175203 | 94 | 355 | 1.0 | 6.0 | 0.00 | 0.00 | 0.00 | 68 | 1010.0 |
| 20260905174646 | 93 | 5 | 2.0 | 6.0 | 0.00 | 0.00 | 0.00 | 68 | 1009.9 |
| 20260905174153 | 93 | 335 | 2.0 | 5.0 | 0.00 | 0.00 | 0.00 | 68 | 1009.9 |
| 20260905173638 | 93 | 332 | 1.0 | 4.0 | 0.00 | 0.00 | 0.00 | 68 | 1010.0 |
| 20260905173144 | 93 | 48 | 2.0 | 6.0 | 0.00 | 0.00 | 0.00 | 68 | 1010.0 |
| 20260905172636 | 93 | 37 | 2.0 | 6.0 | 0.00 | 0.00 | 0.00 | 68 | 1010.0 |
| 20260905172209 | 93 | 355 | 2.0 | 6.0 | 0.00 | 0.00 | 0.00 | 70 | 1010.0 |
| 20260905171636 | 93 | 325 | 2.0 | 4.0 | 0.00 | 0.00 | 0.00 | 69 | 1010.0 |
| 20260905171147 | 93 | 41 | 2.0 | 4.0 | 0.00 | 0.00 | 0.00 | 70 | 1010.0 |
| 20260905170642 | 92 | 346 | 0.0 | 5.0 | 0.00 | 0.00 | 0.00 | 72 | 1010.3 |
| 20260905170148 | 92 | 336 | 3.0 | 5.0 | 0.00 | 0.00 | 0.00 | 71 | 1010.3 |
| 20260905165640 | 92 | 34 | 1.0 | 4.0 | 0.00 | 0.00 | 0.00 | 72 | 1010.3 |
| 20260905165149 | 91 | 320 | 0.0 | 5.0 | 0.00 | 0.00 | 0.00 | 72 | 1010.4 |
| 20260905164654 | 91 | 69 | 0.0 | 6.0 | 0.00 | 0.00 | 0.00 | 72 | 1010.4 |
| 20260905164139 | 91 | 5 | 2.0 | 6.0 | 0.00 | 0.00 | 0.00 | 72 | 1010.4 |
| 20260905163640 | 91 | 346 | 2.0 | 6.0 | 0.00 | 0.00 | 0.00 | 72 | 1010.4 |
| 20260905163138 | 91 | 17 | 1.0 | 6.0 | 0.00 | 0.00 | 0.00 | 72 | 1010.4 |
| 20260905162706 | 91 | 5 | 2.0 | 6.0 | 0.00 | 0.00 | 0.00 | 73 | 1010.4 |
| 20260905162140 | 90 | 5 | 4.0 | 9.0 | 0.00 | 0.00 | 0.00 | 72 | 1010.4 |
| 20260905161648 | 90 | 29 | 3.0 | 10.0 | 0.00 | 0.00 | 0.00 | 71 | 1010.4 |
| 20260905161152 | 90 | 350 | 4.0 | 10.0 | 0.00 | 0.00 | 0.00 | 70 | 1010.4 |
| 20260905160643 | 91 | 335 | 2.0 | 7.0 | 0.00 | 0.00 | 0.00 | 70 | 1010.4 |
| 20260905160151 | 91 | 360 | 3.0 | 5.0 | 0.00 | 0.00 | 0.00 | 69 | 1010.4 |
| 20260905155655 | 91 | 181 | 1.0 | 4.0 | 0.00 | 0.00 | 0.00 | 71 | 1010.4 |
| 20260905155140 | 90 | 343 | 2.0 | 4.0 | 0.00 | 0.00 | 0.00 | 72 | 1010.1 |
| 20260905154647 | 90 | 114 | 2.0 | 4.0 | 0.00 | 0.00 | 0.00 | 71 | 1010.1 |
| 20260905154136 | 90 | 13 | 1.0 | 4.0 | 0.00 | 0.00 | 0.00 | 72 | 1010.1 |
| 20260905153640 | 90 | 355 | 2.0 | 4.0 | 0.00 | 0.00 | 0.00 | 70 | 1009.9 |
| 20260905153149 | 90 | 351 | 2.0 | 5.0 | 0.00 | 0.00 | 0.00 | 71 | 1009.9 |
| 20260905152637 | 90 | 14 | 1.0 | 5.0 | 0.00 | 0.00 | 0.00 | 70 | 1009.9 |
| 20260905152150 | 90 | 355 | 2.0 | 4.0 | 0.00 | 0.00 | 0.00 | 70 | 1010.1 |
| 20260905151659 | 90 | 24 | 0.0 | 4.0 | 0.00 | 0.00 | 0.00 | 72 | 1010.1 |
| 20260905151146 | 90 | 50 | 1.0 | 6.0 | 0.00 | 0.00 | 0.00 | 72 | 1010.1 |
| 20260905150638 | 90 | 311 | 2.0 | 6.0 | 0.00 | 0.00 | 0.00 | 71 | 1010.0 |
| 20260905150143 | 90 | 348 | 1.0 | 5.0 | 0.00 | 0.00 | 0.00 | 71 | 1010.0 |
| 20260905145711 | 89 | 345 | 0.0 | 0.0 | 0.00 | 0.00 | 0.00 | 72 | 1009.9 |
| 20260905145135 | 89 | 61 | 0.0 | 5.0 | 0.00 | 0.00 | 0.00 | 73 | 1009.9 |
| 20260905144646 | 88 | 314 | 1.0 | 5.0 | 0.00 | 0.00 | 0.00 | 72 | 1009.9 |
| 20260905144148 | 88 | 344 | 1.0 | 2.0 | 0.00 | 0.00 | 0.00 | 72 | 1009.9 |
| 20260905143656 | 88 | 9 | 1.0 | 3.0 | 0.00 | 0.00 | 0.00 | 74 | 1009.8 |
| 20260905143145 | 88 | 272 | 0.0 | 3.0 | 0.00 | 0.00 | 0.00 | 74 | 1009.8 |
| 20260905142714 | 88 | 211 | 1.0 | 2.0 | 0.00 | 0.00 | 0.00 | 76 | 1009.8 |
| 20260905142141 | 88 | 211 | 0.0 | 2.0 | 0.00 | 0.00 | 0.00 | 75 | 1009.6 |
| 20260905141645 | 87 | 211 | 1.0 | 2.0 | 0.00 | 0.00 | 0.00 | 74 | 1009.6 |
| 20260905141135 | 87 | 211 | 0.0 | 2.0 | 0.00 | 0.00 | 0.00 | 75 | 1009.6 |
| 20260905140708 | 87 | 211 | 1.0 | 1.0 | 0.00 | 0.00 | 0.00 | 75 | 1009.8 |
| 20260905140136 | 86 | 211 | 0.0 | 2.0 | 0.00 | 0.00 | 0.00 | 77 | 1009.8 |
| 20260905135648 | 85 | 211 | 0.0 | 2.0 | 0.00 | 0.00 | 0.00 | 79 | 1009.8 |
| 20260905135153 | 85 | 211 | 0.0 | 3.0 | 0.00 | 0.00 | 0.00 | 80 | 1009.6 |
| 20260905134642 | 84 | 211 | 1.0 | 3.0 | 0.00 | 0.00 | 0.00 | 80 | 1009.5 |
| 20260905134149 | 84 | 211 | 2.0 | 3.0 | 0.00 | 0.00 | 0.00 | 80 | 1009.5 |
| 20260905133635 | 83 | 211 | 1.0 | 3.0 | 0.00 | 0.00 | 0.00 | 81 | 1009.7 |
| 20260905133137 | 83 | 211 | 1.0 | 4.0 | 0.00 | 0.00 | 0.00 | 82 | 1009.7 |
| 20260905132706 | 83 | 211 | 0.0 | 4.0 | 0.00 | 0.00 | 0.00 | 83 | 1009.7 |
| 20260905132149 | 82 | 211 | 1.0 | 3.0 | 0.00 | 0.00 | 0.00 | 84 | 1009.9 |
| 20260905131654 | 82 | 211 | 0.0 | 3.0 | 0.00 | 0.00 | 0.00 | 84 | 1009.8 |
| 20260905131139 | 82 | 211 | 2.0 | 4.0 | 0.00 | 0.00 | 0.00 | 83 | 1009.8 |
| 20260905130647 | 82 | 211 | 3.0 | 4.0 | 0.00 | 0.00 | 0.00 | 83 | 1009.6 |
| 20260905130142 | 82 | 279 | 0.0 | 0.0 | 0.00 | 0.00 | 0.00 | 84 | 1009.6 |
| 20260905125643 | 81 | 301 | 0.0 | 0.0 | 0.00 | 0.00 | 0.00 | 85 | 1009.6 |